Regional Weather Roundup
Issued by NWS

Home | Current Version | Previous Version | Text Only | Print | Product List | Glossary On
Versions: 1 2 3 4 5 6 7 8 9 10 11 12 13 14 15 16 17 18 19 20 21 22 23 24 25 26 27 28 29 30 31 32 33 34 35 36 37 38 39 40 41 42 43 44 45 46 47 48 49 50
000
ASUS43 KLMK 231802
RWRKY
KENTUCKY REGIONAL WEATHER ROUNDUP
NATIONAL WEATHER SERVICE LOUISVILLE KY
200 PM EDT SAT MAY 23 2015

NOTE "FAIR" INDICATES FEW OR NO CLOUDS BELOW 12,000 FEET
WITH NO SIGNIFICANT WEATHER AND/OR OBSTRUCTIONS TO VISIBILITY.

KYZ001>023-026-027-061>063-070>075-231900-
WESTERN AND SOUTH CENTRAL KENTUCKY

CITY           SKY/WX    TMP DP  RH WIND       PRES   REMARKS
PADUCAH        MOSUNNY   77  52  41 S8G20     30.30F
HENDERSON      MOSUNNY   75  48  38 SE10      30.31F
OWENSBORO      MOSUNNY   76  50  40 VRB6      30.33F
HOPKINSVILLE   PTSUNNY   75  50  40 SE8       30.31F
BOWLING GREEN  SUNNY     77  49  37 SE8       30.34F
GLASGOW        NOT AVBL
$$

KYZ024-025-028>034-038-045-046-053-231900-
NORTH CENTRAL KENTUCKY

CITY           SKY/WX    TMP DP  RH WIND       PRES   REMARKS
LOUISVILLE/SDF PTSUNNY   77  46  33 SE8       30.35F
LOUISVILLE/LOU CLOUDY    77  48  35 SW6       30.35F
FORT KNOX      MOSUNNY   75  50  41 E10       30.33F
$$

KYZ035>037-039>044-047>052-055>060-089>105-231900-
NORTHEAST KENTUCKY

CITY           SKY/WX    TMP DP  RH WIND       PRES   REMARKS
LEXINGTON      MOSUNNY   76  47  35 S7        30.38S
COVINGTON      MOSUNNY   76  46  34 S9        30.37F
FRANKFORT      CLOUDY    75  47  36 SE7       30.36F
$$

KYZ054-064>069-076>088-106>120-231900-
SOUTHEAST KENTUCKY

CITY           SKY/WX    TMP DP  RH WIND       PRES   REMARKS
JACKSON        SUNNY     76  48  37 VRB5      30.39F
LONDON         SUNNY     77  43  29 VRB5      30.38F
SOMERSET       NOT AVBL
MIDDLESBORO    SUNNY     75  50  41 W5        30.39S
MONTICELLO     PTCLDY    77  53  43 SW8       30.38F
$$




USA.gov is the U.S. government's official web portal to all federal, state and local government web resources and services.